This is the latest recevied weather packets stored in our database for station/object APPOWX. If no packets are shown the sender has not sent any weather packets the latest 10 day(s).
| Time | Temp. | Humidity | Pressure | Rain* | Wind** | Luminosity | Snow |
|---|---|---|---|---|---|---|---|
| 1777325926 | 18.33° C | 50% | 1024.3 hPa | 0 mm | - | - | - |
| 1777325866 | 18.33° C | 50% | 1024.5 hPa | 0 mm | - | - | - |
| 1777325806 | 18.33° C | 50% | 1024.2 hPa | 0 mm | - | - | - |
| 1777325746 | 18.33° C | 50% | 1024.1 hPa | 0 mm | - | - | - |
| 1777325686 | 18.33° C | 49% | 1024.1 hPa | 0 mm | - | - | - |
| 1777325625 | 18.33° C | 50% | 1024.3 hPa | 0 mm | - | - | - |
| 1777325565 | 18.33° C | 51% | 1024.3 hPa | 0 mm | - | - | - |
| 1777325505 | 18.33° C | 50% | 1024.3 hPa | 0 mm | - | - | - |
| 1777325445 | 18.33° C | 49% | 1024.5 hPa | 0 mm | - | - | - |
| 1777325385 | 18.33° C | 48% | 1024.5 hPa | 0 mm | - | - | - |
| 1777325324 | 18.33° C | 48% | 1024.5 hPa | 0 mm | - | - | - |
| 1777325264 | 18.33° C | 49% | 1024.5 hPa | 0 mm | - | - | - |
| 1777325204 | 18.33° C | 49% | 1024.3 hPa | 0 mm | - | - | - |
| 1777325144 | 18.33° C | 48% | 1024.5 hPa | 0 mm | - | - | - |
| 1777325083 | 18.33° C | 51% | 1024.6 hPa | 0 mm | - | - | - |
| 1777325023 | 18.33° C | 51% | 1024.4 hPa | 0 mm | - | - | - |
| 1777324963 | 18.33° C | 49% | 1024.3 hPa | 0 mm | - | - | - |
| 1777324903 | 18.33° C | 49% | 1024.5 hPa | 0 mm | - | - | - |
| 1777324843 | 18.33° C | 48% | 1024.5 hPa | 0 mm | - | - | - |
| 1777324783 | 18.33° C | 47% | 1024.4 hPa | 0 mm | - | - | - |
| 1777324723 | 18.33° C | 51% | 1024.5 hPa | 0 mm | - | - | - |
| 1777324662 | 18.33° C | 50% | 1024.4 hPa | 0 mm | - | - | - |
| 1777324602 | 18.33° C | 46% | 1024.4 hPa | 0 mm | - | - | - |
| 1777324542 | 18.33° C | 50% | 1024.3 hPa | 0 mm | - | - | - |
| 1777324482 | 18.33° C | 49% | 1024.3 hPa | 0 mm | - | - | - |
* Rain latest hour (hover to see other rain measurements)
** Current wind speed in m/s (hover to see current wind gust speed)